| time (UTC) | temp F | wind direction | speed knots | gust knots | rain 1hr in | rain 24hr in | rain mn in | humidity % | barometer mb |
| 20260505183742 | 40 | 313 | 15.6 | 23.5 | 0.00 | 0.00 | 0.00 | 42 | 1017.3 |
| 20260505182751 | 40 | 286 | 13.9 | 20.0 | 0.00 | 0.00 | 0.00 | 41 | 1017.5 |
| 20260505181753 | 40 | 297 | 20.0 | 20.0 | 0.00 | 0.00 | 0.00 | 43 | 1017.4 |
| 20260505180754 | 40 | 305 | 13.0 | 21.7 | 0.00 | 0.00 | 0.00 | 42 | 1017.3 |
| 20260505175817 | 40 | 294 | 15.6 | 20.9 | 0.00 | 0.00 | 0.00 | 42 | 1017.4 |
| 20260505174741 | 40 | 313 | 21.7 | 21.7 | 0.00 | 0.00 | 0.00 | 42 | 1017.3 |
| 20260505173744 | 39 | 309 | 13.0 | 20.0 | 0.00 | 0.00 | 0.00 | 41 | 1017.3 |
| 20260505172745 | 39 | 286 | 18.2 | 22.6 | 0.00 | 0.00 | 0.00 | 42 | 1017.4 |
| 20260505171806 | 38 | 302 | 15.6 | 25.2 | 0.00 | 0.00 | 0.00 | 43 | 1017.4 |
| 20260505170745 | 39 | 297 | 17.4 | 22.6 | 0.00 | 0.00 | 0.00 | 43 | 1017.4 |
| 20260505165746 | 39 | 285 | 14.8 | 23.5 | 0.00 | 0.00 | 0.00 | 44 | 1017.5 |
| 20260505164750 | 38 | 288 | 13.9 | 23.5 | 0.00 | 0.00 | 0.00 | 44 | 1017.5 |
| 20260505163811 | 38 | 291 | 13.9 | 22.6 | 0.00 | 0.00 | 0.00 | 45 | 1017.4 |
| 20260505162749 | 37 | 292 | 14.8 | 21.7 | 0.00 | 0.00 | 0.00 | 46 | 1017.4 |
| 20260505161815 | 37 | 294 | 13.0 | 23.5 | 0.00 | 0.00 | 0.00 | 46 | 1017.3 |
| 20260505160818 | 37 | 302 | 13.0 | 21.7 | 0.00 | 0.00 | 0.00 | 47 | 1017.2 |
| 20260505152740 | 36 | 300 | 18.2 | 21.7 | 0.00 | 0.00 | 0.00 | 49 | 1017.1 |
| 20260505151802 | 36 | 300 | 12.2 | 18.2 | 0.00 | 0.00 | 0.00 | 49 | 1017.9 |
| 20260505150745 | 37 | 290 | 13.0 | 18.2 | 0.00 | 0.00 | 0.00 | 51 | 1018.0 |
| 20260505124749 | 30 | 291 | 8.7 | 10.4 | 0.00 | 0.00 | 0.00 | 69 | 1017.0 |
| 20260505123751 | 29 | 293 | 8.7 | 10.4 | 0.00 | 0.00 | 0.00 | 70 | 1017.0 |
| 20260505122751 | 29 | 291 | 8.7 | 9.6 | 0.00 | 0.00 | 0.00 | 71 | 1016.9 |
| 20260505121752 | 28 | 285 | 7.8 | 10.4 | 0.00 | 0.00 | 0.00 | 71 | 1016.8 |
| 20260505120813 | 27 | 290 | 8.7 | 10.4 | 0.00 | 0.00 | 0.00 | 73 | 1016.6 |
| 20260505115756 | 27 | 282 | 7.8 | 9.6 | 0.00 | 0.00 | 0.00 | 73 | 1016.5 |
| 20260505114739 | 27 | 289 | 8.7 | 10.4 | 0.00 | 0.00 | 0.00 | 73 | 1016.5 |
| 20260505113741 | 27 | 289 | 9.6 | 10.4 | 0.00 | 0.00 | 0.00 | 73 | 1016.4 |
| 20260505112742 | 27 | 290 | 8.7 | 8.7 | 0.00 | 0.00 | 0.00 | 73 | 1016.3 |
| 20260505111747 | 27 | 293 | 5.2 | 9.6 | 0.00 | 0.00 | 0.00 | 72 | 1016.2 |
| 20260505110746 | 28 | 292 | 7.8 | 10.4 | 0.00 | 0.00 | 0.00 | 72 | 1016.2 |
| 20260505101753 | 30 | 279 | 6.1 | 8.7 | 0.00 | 0.00 | 0.00 | 69 | 1016.0 |
| 20260505100758 | 30 | 284 | 5.2 | 8.7 | 0.00 | 0.00 | 0.00 | 68 | 1016.0 |
| 20260505095742 | 30 | 290 | 7.0 | 8.7 | 0.00 | 0.00 | 0.00 | 69 | 1015.7 |
| 20260505094741 | 28 | 293 | 6.1 | 6.1 | 0.00 | 0.00 | 0.00 | 72 | 1015.7 |
| 20260505093800 | 29 | 292 | 3.5 | 5.2 | 0.00 | 0.00 | 0.00 | 70 | 1015.6 |
| 20260505092741 | 30 | 292 | 3.5 | 7.8 | 0.00 | 0.00 | 0.00 | 69 | 1015.5 |
| 20260505091800 | 31 | 282 | 4.3 | 6.1 | 0.00 | 0.00 | 0.00 | 67 | 1015.5 |
| 20260505090801 | 32 | 273 | 5.2 | 8.7 | 0.00 | 0.00 | 0.00 | 67 | 1015.5 |
| 20260505085746 | 32 | 278 | 5.2 | 8.7 | 0.00 | 0.00 | 0.00 | 65 | 1015.4 |
| 20260505084808 | 33 | 277 | 4.3 | 6.1 | 0.00 | 0.00 | 0.00 | 64 | 1015.2 |
| 20260505083745 | 33 | 270 | 4.3 | 6.1 | 0.00 | 0.00 | 0.00 | 64 | 1015.3 |
| 20260505082747 | 33 | 266 | 4.3 | 5.2 | 0.00 | 0.00 | 0.00 | 65 | 1015.2 |
| 20260505081746 | 32 | 266 | 4.3 | 6.1 | 0.00 | 0.00 | 0.00 | 65 | 1015.2 |
| 20260505080753 | 31 | 289 | 4.3 | 5.2 | 0.00 | 0.00 | 0.00 | 67 | 1015.1 |
| 20260505075754 | 30 | 305 | 2.6 | 3.5 | 0.00 | 0.00 | 0.00 | 67 | 1015.1 |
| 20260505074814 | 31 | 305 | 2.6 | 4.3 | 0.00 | 0.00 | 0.00 | 65 | 1014.9 |
| 20260505073752 | 33 | 304 | 1.7 | 2.6 | 0.00 | 0.00 | 0.00 | 63 | 1014.9 |
| 20260505072812 | 34 | 304 | 0.0 | 1.7 | 0.00 | 0.00 | 0.00 | 62 | 1014.8 |
| 20260505071759 | 35 | 304 | 0.0 | 0.0 | 0.00 | 0.00 | 0.00 | 61 | 1014.8 |
| 20260505070739 | 35 | 304 | 0.0 | 1.7 | 0.00 | 0.00 | 0.00 | 61 | 1014.9 |
| 20260505065742 | 35 | 304 | 0.0 | 1.7 | 0.00 | 0.00 | 0.00 | 60 | 1014.8 |
| 20260505064746 | 36 | 304 | 0.0 | 2.6 | 0.00 | 0.00 | 0.00 | 60 | 1014.8 |
| 20260505063745 | 36 | 304 | 1.7 | 5.2 | 0.00 | 0.00 | 0.00 | 59 | 1014.8 |
| 20260505062753 | 36 | 306 | 4.3 | 5.2 | 0.00 | 0.00 | 0.00 | 59 | 1015.5 |
| 20260505061754 | 36 | 317 | 2.6 | 5.2 | 0.00 | 0.00 | 0.00 | 59 | 1015.4 |
| 20260505060756 | 34 | 323 | 2.6 | 4.3 | 0.00 | 0.00 | 0.00 | 61 | 1015.4 |
| 20260505055756 | 33 | 323 | 3.5 | 4.3 | 0.00 | 0.00 | 0.00 | 62 | 1015.3 |
| 20260505054744 | 33 | 323 | 2.6 | 4.3 | 0.00 | 0.00 | 0.00 | 61 | 1015.2 |
| 20260505053745 | 34 | 323 | 2.6 | 3.5 | 0.00 | 0.00 | 0.00 | 63 | 1015.1 |
| 20260505052745 | 34 | 323 | 3.5 | 3.5 | 0.00 | 0.00 | 0.00 | 58 | 1015.0 |
| 20260505051748 | 34 | 323 | 2.6 | 3.5 | 0.00 | 0.00 | 0.00 | 58 | 1015.0 |
| 20260505050752 | 35 | 323 | 2.6 | 3.5 | 0.00 | 0.00 | 0.00 | 58 | 1014.9 |
| 20260505041743 | 39 | 300 | 2.6 | 6.1 | 0.00 | 0.00 | 0.00 | 50 | 1014.5 |
| 20260505040807 | 40 | 300 | 2.6 | 8.7 | 0.00 | 0.00 | 0.00 | 48 | 1014.6 |
| 20260505035807 | 41 | 294 | 7.0 | 10.4 | 0.00 | 0.00 | 0.00 | 47 | 1014.4 |
| 20260505034747 | 41 | 311 | 5.2 | 10.4 | 0.00 | 0.00 | 0.00 | 46 | 1014.3 |
| 20260505033746 | 42 | 312 | 7.8 | 13.0 | 0.00 | 0.00 | 0.00 | 45 | 1014.1 |
| 20260505032754 | 42 | 299 | 13.9 | 13.9 | 0.00 | 0.00 | 0.00 | 44 | 1014.1 |
| 20260505031756 | 42 | 295 | 13.9 | 13.9 | 0.00 | 0.00 | 0.00 | 44 | 1013.9 |
| 20260505030758 | 42 | 304 | 9.6 | 17.4 | 0.00 | 0.00 | 0.00 | 43 | 1013.8 |
| 20260505025757 | 42 | 284 | 7.8 | 13.9 | 0.00 | 0.00 | 0.00 | 44 | 1013.7 |
| 20260505024743 | 42 | 314 | 11.3 | 15.6 | 0.00 | 0.00 | 0.00 | 43 | 1013.5 |
| 20260505023748 | 43 | 306 | 14.8 | 17.4 | 0.00 | 0.00 | 0.00 | 43 | 1013.4 |
| 20260505022809 | 43 | 309 | 8.7 | 16.5 | 0.00 | 0.00 | 0.00 | 44 | 1013.2 |
| 20260505021808 | 43 | 297 | 9.6 | 15.6 | 0.00 | 0.00 | 0.00 | 44 | 1012.9 |
| 20260505020746 | 43 | 311 | 12.2 | 19.1 | 0.00 | 0.00 | 0.00 | 44 | 1012.8 |
| 20260505015750 | 43 | 315 | 13.9 | 20.9 | 0.00 | 0.00 | 0.00 | 43 | 1012.7 |
| 20260505014749 | 43 | 310 | 10.4 | 19.1 | 0.00 | 0.00 | 0.00 | 45 | 1012.6 |
| 20260505013750 | 43 | 306 | 14.8 | 21.7 | 0.00 | 0.00 | 0.00 | 45 | 1012.4 |
| 20260505012751 | 44 | 300 | 13.0 | 24.3 | 0.00 | 0.00 | 0.00 | 44 | 1012.4 |
| 20260505011809 | 44 | 308 | 18.2 | 21.7 | 0.00 | 0.00 | 0.00 | 44 | 1012.2 |
| 20260505010756 | 45 | 313 | 15.6 | 22.6 | 0.00 | 0.00 | 0.00 | 42 | 1012.0 |
| 20260505005755 | 45 | 296 | 15.6 | 22.6 | 0.00 | 0.00 | 0.00 | 43 | 1013.0 |
| 20260505004753 | 46 | 304 | 17.4 | 24.3 | 0.00 | 0.00 | 0.00 | 44 | 1012.8 |
| 20260505003755 | 45 | 316 | 17.4 | 22.6 | 0.00 | 0.00 | 0.00 | 45 | 1012.9 |
| 20260505002753 | 45 | 304 | 17.4 | 26.1 | 0.00 | 0.00 | 0.00 | 42 | 1013.0 |
| 20260505001740 | 46 | 298 | 15.6 | 22.6 | 0.00 | 0.00 | 0.00 | 44 | 1012.7 |
| 20260505000743 | 46 | 315 | 8.7 | 24.3 | 0.00 | 0.00 | 0.00 | 47 | 1012.6 |
| 20260504235744 | 46 | 323 | 22.6 | 22.6 | 0.00 | 0.00 | 0.00 | 45 | 1012.7 |
| 20260504234746 | 46 | 304 | 20.0 | 25.2 | 0.00 | 0.00 | 0.00 | 45 | 1012.5 |
| 20260504233805 | 46 | 300 | 24.3 | 24.3 | 0.00 | 0.00 | 0.00 | 46 | 1012.5 |
| 20260504232752 | 46 | 277 | 20.0 | 24.3 | 0.00 | 0.00 | 0.00 | 46 | 1012.3 |
| 20260504231753 | 47 | 298 | 23.5 | 25.2 | 0.00 | 0.00 | 0.00 | 45 | 1012.2 |
| 20260504230753 | 47 | 306 | 18.2 | 24.3 | 0.00 | 0.00 | 0.00 | 46 | 1012.2 |
| 20260504225815 | 47 | 286 | 19.1 | 27.8 | 0.00 | 0.00 | 0.00 | 44 | 1012.0 |
| 20260504224755 | 48 | 309 | 20.9 | 27.8 | 0.00 | 0.00 | 0.00 | 43 | 1011.9 |
| 20260504223759 | 48 | 288 | 22.6 | 27.8 | 0.00 | 0.00 | 0.00 | 43 | 1012.0 |
| 20260504222759 | 49 | 294 | 16.5 | 34.8 | 0.00 | 0.00 | 0.00 | 44 | 1011.7 |
| 20260504221759 | 48 | 304 | 20.0 | 28.7 | 0.00 | 0.00 | 0.00 | 45 | 1011.9 |
| 20260504220740 | 49 | 295 | 20.0 | 30.4 | 0.00 | 0.00 | 0.00 | 42 | 1011.7 |
| 20260504215745 | 47 | 282 | 21.7 | 29.5 | 0.00 | 0.00 | 0.00 | 45 | 1011.4 |
| 20260504214745 | 49 | 293 | 23.5 | 31.3 | 0.00 | 0.00 | 0.00 | 42 | 1011.5 |
| 20260504213748 | 48 | 304 | 20.0 | 27.8 | 0.00 | 0.00 | 0.00 | 43 | 1011.5 |
| 20260504212749 | 48 | 294 | 20.0 | 27.8 | 0.00 | 0.00 | 0.00 | 43 | 1011.4 |
| 20260504211754 | 48 | 290 | 16.5 | 28.7 | 0.00 | 0.00 | 0.00 | 42 | 1011.4 |
| 20260504210755 | 49 | 315 | 20.9 | 28.7 | 0.00 | 0.00 | 0.00 | 42 | 1011.5 |
| 20260504205755 | 49 | 290 | 22.6 | 28.7 | 0.00 | 0.00 | 0.00 | 41 | 1011.5 |
| 20260504204819 | 49 | 298 | 13.0 | 31.3 | 0.00 | 0.00 | 0.00 | 41 | 1011.4 |
| 20260504203759 | 50 | 317 | 19.1 | 28.7 | 0.00 | 0.00 | 0.00 | 40 | 1011.4 |
| 20260504202742 | 49 | 321 | 15.6 | 27.8 | 0.00 | 0.00 | 0.00 | 40 | 1011.5 |
| 20260504201743 | 50 | 305 | 18.2 | 27.8 | 0.00 | 0.00 | 0.00 | 40 | 1011.4 |
| 20260504200744 | 51 | 275 | 25.2 | 27.8 | 0.00 | 0.00 | 0.00 | 40 | 1011.2 |
| 20260504195745 | 50 | 302 | 17.4 | 28.7 | 0.00 | 0.00 | 0.00 | 40 | 1011.2 |
| 20260504194750 | 49 | 317 | 22.6 | 27.8 | 0.00 | 0.00 | 0.00 | 39 | 1011.2 |
| 20260504193811 | 49 | 292 | 25.2 | 28.7 | 0.00 | 0.00 | 0.00 | 41 | 1012.2 |
| 20260504192751 | 50 | 296 | 22.6 | 33.0 | 0.00 | 0.00 | 0.00 | 41 | 1012.2 |
| 20260504191757 | 51 | 313 | 20.0 | 30.4 | 0.00 | 0.00 | 0.00 | 41 | 1011.9 |
| 20260504190817 | 49 | 296 | 18.2 | 27.8 | 0.00 | 0.00 | 0.00 | 42 | 1011.9 |
| 20260504185759 | 49 | 300 | 24.3 | 27.8 | 0.00 | 0.00 | 0.00 | 41 | 1012.0 |
| 20260504184740 | 50 | 288 | 19.1 | 33.9 | 0.00 | 0.00 | 0.00 | 41 | 1011.8 |